Terug naar catalogus

COSMOS 1579 COOLANT

LostLEO
NORAD 27913·DEBRIS·🇷🇺 Russia

Gelanceerd Jun 29, 1984 vanaf Baikonur Cosmodrome

Loading…

Volgende Passages (komende 24 uur)

TLE

VerouderdSource: Space-Track

Epoch: Oct 18, 2018, 19:16 UTC

1 27913U 84069AF  18291.80324124 -.00000028  00000-0  48736-4 0  9997
2 27913  65.0466 356.9366 0062275 261.0260  98.3783 13.90747343794546

Volg COSMOS 1579 COOLANT in realtime met AllMySat

Download on the App Store